This demonstration page uses our WeatherBlox Daily Observations layout. Learn more.

Left ArrowRight Arrow

41.12389, -100.76542

Hourly Observations for March 10, 2021

Temp ( °F °C ) Dew Point ( °F °C ) Humidity (%) Winds ( mph kmh ) Pressure ( in mb ) Visibility ( mi km ) Precip ( " mm )
12:53 am 00:53 Cloudy 49 9.4 31 -0.6 50 50 NE 31 50 29.58 1002 10 16 0.00 0.00
1:53 am 01:53 Cloudy 49 9.4 32 0 52 52 NNE 23 37 29.57 1001 10 16 0.00 0.00
2:53 am 02:53 Cloudy 47 8.3 32 0 56 56 NNE 18 30 29.57 1001 10 16 0.00 0.00
3:53 am 03:53 Mostly Cloudy 44 6.7 33 0.6 65 65 NE 31 50 29.49 999 10 16 0.00 0.00
4:53 am 04:53 Cloudy 44 6.7 34 1.1 68 68 NE 30 48 29.48 998 10 16 0.00 0.00
5:40 am 05:40 Cloudy 43 6.1 34 1.1 71 71 NNE 26 43 29.60 1002 10 16 0.00 0.00
5:53 am 05:53 Cloudy 42 5.6 33 0.6 71 71 NNE 22 35 29.55 1001 10 16 0.00 0.00
6:53 am 06:53 Cloudy 40 4.4 32 0 73 73 N 21 33 29.56 1001 10 16 0.00 0.00
7:35 am 07:35 Cloudy 39 3.9 32 0 76 76 NNE 21 33 29.63 1003 10 16 0.00 0.00
7:53 am 07:53 Cloudy 38 3.3 32 0 79 79 NNE 18 30 29.58 1002 10 16 0.00 0.00
8:53 am 08:53 Cloudy 37 2.8 32 0 82 82 N 15 24 29.61 1003 10 16 0.00 0.00
9:08 am 09:08 Cloudy 37 2.8 32 0 82 82 NNE 17 28 29.67 1005 10 16 0.00 0.00
9:53 am 09:53 Cloudy with Light Rain 37 2.8 32 0 82 82 NW 12 19 29.66 1004 6 10 0.00 0.00
10:32 am 10:32 Cloudy with Light Rain 37 2.8 33 0.6 86 86 WNW 16 26 29.74 1007 4 6 0.03 0.76
10:41 am 10:41 Cloudy with Light Rain 37 2.8 33 0.6 86 86 WNW 17 28 29.74 1007 4 6 0.03 0.76
10:53 am 10:53 Cloudy with Light Rain 37 2.8 33 0.6 86 86 NW 15 24 29.69 1005 5 8 0.04 1.02
11:53 am 11:53 Cloudy 38 3.3 33 0.6 83 83 NW 17 28 29.71 1006 10 16 0.00 0.00
12:53 pm 12:53 Cloudy 40 4.4 32 0 73 73 NNW 18 30 29.72 1006 10 16 0.00 0.00
1:53 pm 13:53 Cloudy 40 4.4 30 -1.1 68 68 NW 15 24 29.75 1007 10 16 0.00 0.00
2:53 pm 14:53 Cloudy 40 4.4 29 -1.7 65 65 NW 17 28 29.78 1009 10 16 0.00 0.00
3:53 pm 15:53 Cloudy 41 5 29 -1.7 62 62 NNW 14 22 29.83 1010 10 16 0.00 0.00
4:53 pm 16:53 Cloudy 40 4.4 28 -2.2 63 63 NW 15 24 29.87 1012 10 16 0.00 0.00
5:02 pm 17:02 Cloudy 39 3.9 29 -1.7 67 67 WNW 13 20 29.92 1013 10 16 0.00 0.00
5:53 pm 17:53 Cloudy 39 3.9 28 -2.2 65 65 NNW 10 17 29.90 1012 10 16 0.00 0.00
6:53 pm 18:53 Mostly Cloudy 37 2.8 27 -2.8 67 67 NW 10 17 29.93 1014 10 16 0.00 0.00
7:07 pm 19:07 Partly Cloudy 34 1.1 26 -3.3 73 73 NW 8 13 30.00 1016 10 16 0.00 0.00
7:20 pm 19:20 Mostly Cloudy 35 1.7 27 -2.8 72 72 NW 8 13 30.00 1016 10 16 0.00 0.00
7:37 pm 19:37 Partly Cloudy 31 -0.6 25 -3.9 79 79 NNW 7 11 30.04 1017 10 16 0.00 0.00
7:49 pm 19:49 Mostly Cloudy 34 1 27 -3 75 75 NW 7 11 30.03 1017 10 16 0.00 0.00
7:53 pm 19:53 Mostly Cloudy 34 1.1 27 -2.8 76 76 NW 8 13 29.99 1016 10 16 0.00 0.00
8:31 pm 20:31 Mostly Clear 33 0.6 25 -3.9 72 72 NNW 8 13 30.05 1017 10 16 0.00 0.00
8:53 pm 20:53 Clear 31 -0.6 24 -4.4 76 76 NW 7 11 30.02 1017 10 16 0.00 0.00
9:53 pm 21:53 Clear 29 -1.7 24 -4.4 82 82 NW 6 9 30.06 1018 10 16 0.00 0.00
10:53 pm 22:53 Clear 25 -3.9 21 -6.1 85 85 NW 8 13 30.09 1019 10 16 0.00 0.00
11:53 pm 23:53 Clear 24 -4.4 19 -7.2 81 81 W 3 6 30.09 1019 10 16 0.00 0.00

Powered by AerisWeather